Regional Weather Roundup
Issued by NWS Albany, NY

Home | Current Version | Previous Version | Graphics & Text | Print | Product List | Glossary Off
Versions: 1 2 3 4 5 6 7 8 9 10 11 12 13 14 15 16 17 18 19 20 21 22 23 24 25 26 27 28 29 30 31 32 33 34 35 36 37 38 39 40 41 42 43 44 45 46 47 48 49 50

000
ASUS41 KALY 270010
RWRALY

NEW YORK STATE HOURLY WEATHER ROUNDUP
NATIONAL WEATHER SERVICE ALBANY NY
800 PM EDT MON JUN 26 2017

NOTE: "FAIR" INDICATES FEW OR NO CLOUDS BELOW 12,000 FEET WITH NO
SIGNIFICANT WEATHER AND/OR NO OBSTRUCTIONS TO VISIBILITY.

NYZ032-033-038>043-046>054-057>066-NYZ062>081-082-084-270100-
EAST


CITY           SKY/WX    TMP DP  RH WIND       PRES   REMARKS
ALBANY         MOCLDY    63  55  75 E6        29.98R
GLENS FALLS    CLOUDY    62  56  80 CALM      29.97S
POUGHKEEPSIE   PTCLDY    75  46  35 SW5       29.94S
NEWBURGH       PTCLDY    73  50  43 SW9       29.97S
MONTGOMERY     CLEAR     71  49  45 SW7       29.96R
WHITE PLAINS   CLEAR     70  49  47 VRB7      29.98S
ISLIP          PTCLDY    71  53  52 SW8       29.99S
NEW YORK CITY  PTCLDY    74  60  61 S13       29.97S
CENTRAL PARK   CLEAR     74  54  49 CALM      30.00S
$$

NYZ005>009-017-018-044>046-055-056-270100-
CENTRAL


CITY           SKY/WX    TMP DP  RH WIND       PRES   REMARKS
FULTON         CLOUDY    61  55  81 VRB3      29.96R
SYRACUSE       CLOUDY    66  53  63 SW6       29.96R THUNDER
ROME           CLOUDY    63  58  83 SE6       29.96S
ELMIRA         LGT RAIN  60  58  92 CALM      29.98S
BINGHAMTON     LGT RAIN  55  51  86 N8        29.99R
MONTICELLO     CLEAR     68  46  45 CALM      30.00R
$$

NYZ026>034-041>043-087-270100-
NORTH


CITY           SKY/WX    TMP DP  RH WIND       PRES   REMARKS
WATERTOWN      CLOUDY    61  55  81 NW18      29.95R
FORT DRUM      NOT AVBL
OGDENSBURG     FAIR      61  55  80 CALM      29.93R
MASSENA        LGT RAIN  63  57  81 S3        29.93S
SARANAC LAKE   CLOUDY    58  55  90 W3        29.95S
PLATTSBURGH    MOCLDY    67  52  58 CALM      29.93R
$$

NYZ001>004-010>016-019>021-085-270100-
WEST


CITY           SKY/WX    TMP DP  RH WIND       PRES   REMARKS
NIAGARA FALLS  CLOUDY    60  50  69 W9        29.96R THUNDER
BUFFALO        PTCLDY    65  50  58 SW20G30   29.95R
DUNKIRK        CLEAR     65  50  58 SW13G20   29.96F
JAMESTOWN      CLEAR     61  45  55 W9        30.00S
WELLSVILLE     PTCLDY    57  51  80 SW5       30.03S
ROCHESTER      MOCLDY    65  53  65 CALM      29.95R
PENN YAN       CLOUDY    62  49  62 SW7       29.99R
$$

             KEY
       WCI = WIND CHILL INDEX
       VSB = VISIBILITY
       HX  = HEAT INDEX
$$



USA.gov is the U.S. government's official web portal to all federal, state and local government web resources and services.